Location: Caltech
(34.1382°N, 118.1253°W)
Time: 16:39:22
(UTC-08:00)

Oscar 10/S400 - Visible Passes

Search period start: 13 December 2017 00:00
Search period end: 23 December 2017 00:00
Orbit: 4005 x 35442 km, 27.2° (Epoch: 13 December)

Date Brightness Start Highest point End Pass type
(mag) Time Alt. Az. Time Alt. Az. Time Alt. Az.
13 Dec ? 18:27:32 10° SSW 18:43:24 29° SE 18:53:57 23° ESE visible
14 Dec ? 17:45:12 10° S 17:58:50 21° SE 18:13:30 13° E visible
15 Dec ? 17:04:01 10° S 17:13:49 15° SE 17:24:46 10° ESE visible
16 Dec ? 05:55:22 11° WNW 07:24:53 31° W 10:51:01 10° W visible
17 Dec ? 05:15:17 20° W 06:40:52 39° W 11:06:04 10° WSW visible
18 Dec ? 04:35:13 29° W 05:55:13 48° WSW 11:19:52 10° WSW visible
19 Dec ? 03:55:09 40° W 05:07:14 56° WSW 11:34:05 10° WSW visible
20 Dec ? 03:15:08 51° W 04:15:27 64° SW 11:49:10 10° SW visible
21 Dec ? 02:35:07 61° WSW 03:17:49 71° SW 11:49:52 10° SSW visible
22 Dec ? 01:08:06 10° W 02:15:31 76° SSW 11:20:06 10° S visible
